AMOS-4 (39237 NORAD) Tracking and Keplerian Element Data

This shows tracking and keplerian element data for the satellite.

Feedback or suggestion? Click here.




ElementValue
Catalog39237
NameAMOS-4
Epoch Orbit4196
Epoch Day34.71364082
Epoch Year2025
RAAN97.9708
Inclination0.0313
Eccentricity0.0003248
Argument of Perigee229.6074
Mean Anonmoly128.4406
Mean Motion1.00272947
Decay Rate1.1E-07
L11 39237U 13045A 25034.71364082 .00000011 00000+0 00000+0 0 9992
L22 39237 0.0313 97.9708 0003248 229.6074 128.4406 1.00272947 41967



Live tracking and technical data element details for AMOS-4 (NORAD 39237). AMOS-4 can be tracked NOW for your location showing map with azimuth and elevation plus other details from your city location.







IsCatalogInMostPopularTable: catalog: 39237, numindb: 432
Update: records affected: 1



GetName: 39237 AMOS-4

Hit Count: updated at: Sat, 17 May 2025 08:43:11 GMT